Wind_Speed
18 18 18 18 17 17 17 17 17 18 18 25 24 27 30 34 37 40 42 45 23 18 12 11 25 21 18 13 26 35 25 18 19 12 9 5 6 7 14 16 19 17 20 22 14 21 24 31 37
19 18 17 18 17 15 12 14 16 20 22 23 22 26 30 35 34 37 42 36 18 17 10 19 28 17 15 22 21 27 25 24 20 10 8 6 7 10 14 18 22 20 21 13 14 20 24 31 36
19 19 18 17 16 13 15 14 18 19 22 23 23 24 31 31 30 35 43 31 14 12 10 30 23 19 20 22 22 19 25 24 19 11 8 7 8 8 14 20 21 16 7 12 16 19 26 32 35
20 20 19 19 17 16 18 18 22 21 22 21 24 21 29 28 29 34 38 28 16 6 7 29 21 23 17 27 28 16 17 21 21 14 9 7 7 9 15 10 9 10 9 13 17 20 27 32 35
20 20 19 16 16 20 21 23 21 23 23 20 21 21 29 25 29 34 37 23 18 8 2 29 24 27 29 26 20 24 23 20 19 13 10 10 4 9 5 11 8 10 13 17 18 22 27 30 35
17 18 17 16 16 18 17 18 21 24 21 20 19 22 26 27 28 32 36 19 14 10 3 30 28 31 28 30 27 23 21 21 19 14 10 6 4 7 8 9 5 9 13 17 19 21 27 29 34
19 18 18 19 21 24 26 26 26 24 22 21 20 21 22 24 26 30 36 23 8 12 2 21 30 22 21 34 25 27 21 22 20 13 9 3 7 5 11 6 7 10 14 17 20 23 25 29 35
26 26 25 23 23 21 23 24 28 29 24 20 18 20 21 23 25 29 37 25 7 10 8 13 22 20 19 27 27 27 22 23 19 5 12 9 1 5 6 7 9 12 15 18 19 22 27 31 34
30 30 31 26 24 21 20 22 20 25 25 26 24 18 20 22 24 27 34 29 7 10 9 14 22 17 15 29 27 19 18 22 20 14 12 8 2 2 5 6 9 14 17 17 17 22 26 29 34
36 33 32 30 27 26 24 22 22 23 23 24 24 20 21 19 21 25 30 32 8 9 11 13 23 20 15 28 22 19 17 20 18 14 9 7 7 5 2 6 9 15 18 14 16 20 24 25 33
41 39 37 35 31 29 26 25 23 23 23 22 20 19 21 20 18 20 25 30 12 7 10 8 21 16 20 31 23 19 15 18 16 11 11 8 5 4 3 7 7 12 17 16 17 19 21 22 22
42 40 39 37 35 33 30 27 25 23 24 21 21 21 22 22 14 17 20 25 12 6 10 5 20 18 23 27 16 16 21 20 14 15 10 9 5 4 6 11 11 14 14 15 15 19 17 20 23
45 44 43 41 40 38 35 31 28 28 27 26 24 23 21 23 14 11 14 19 10 2 5 5 12 20 24 28 20 19 24 21 21 20 13 8 4 5 6 8 10 13 16 16 15 16 16 19 24
48 47 47 45 44 43 40 36 34 32 30 28 27 25 22 23 17 12 9 13 12 4 2 8 13 15 26 24 20 26 25 21 19 13 12 10 10 9 8 9 12 12 14 18 18 18 15 20 24
51 50 49 46 46 45 43 39 40 38 36 35 32 28 27 23 22 15 8 10 10 6 5 8 16 15 20 21 23 24 25 21 16 13 13 9 8 8 6 7 9 13 16 16 20 18 15 19 22
48 48 47 46 47 46 44 38 39 38 40 38 37 35 32 26 25 17 9 11 10 4 8 9 13 19 16 24 24 24 25 21 18 18 11 6 4 8 4 6 11 13 15 19 18 19 13 15 19
45 45 44 44 45 44 43 38 38 38 38 37 39 38 35 31 26 19 10 15 12 4 10 13 13 17 19 22 25 23 22 19 21 21 15 11 10 5 4 2 8 8 13 18 17 17 14 16 19
37 36 37 38 39 39 41 39 41 40 36 35 35 35 33 29 26 22 16 17 10 6 9 14 14 15 19 22 26 24 22 22 23 21 19 15 12 9 9 8 7 7 9 15 18 14 14 11 18
31 32 32 32 34 34 34 35 36 37 37 36 34 32 31 30 28 24 20 16 13 6 8 12 15 15 15 20 24 26 26 25 22 18 18 19 17 14 15 11 10 7 9 11 15 13 11 14 12
28 27 26 26 28 29 30 30 30 31 29 28 30 28 27 28 28 27 25 16 15 10 6 12 13 18 21 19 23 26 26 25 24 20 21 24 22 21 21 17 11 6 6 10 11 17 12 13 14
26 25 25 24 22 23 25 26 27 30 28 23 25 29 28 34 29 32 29 23 19 17 9 8 10 8 10 18 25 25 29 29 27 29 26 23 21 20 17 14 15 7 6 9 11 14 15 11 11
22 21 21 21 20 18 17 19 6 32 29 23 20 24 32 36 35 35 34 30 24 18 16 13 11 13 10 9 13 21 26 27 31 32 31 29 28 23 22 22 21 16 14 16 15 12 17 11 4
17 17 16 16 16 21 28 24 37 27 27 25 21 27 26 37 36 33 35 36 33 26 19 18 13 14 12 14 11 11 17 24 32 32 32 35 30 26 21 24 22 20 15 16 14 16 18 14 5
19 18 17 17 18 18 20 29 30 30 32 30 22 23 32 31 40 39 32 34 30 24 22 22 17 15 16 12 9 12 9 14 19 25 34 28 34 27 26 26 25 24 19 21 18 17 18 12 4
21 21 21 21 21 18 22 30 30 32 33 33 29 23 32 40 42 31 43 31 37 34 25 24 22 21 20 17 14 11 9 7 11 17 24 35 38 35 39 32 27 24 23 24 20 20 17 15 9
21 21 20 21 23 25 25 24 27 28 33 34 31 27 23 31 28 46 36 40 37 34 32 33 27 26 23 21 19 15 14 15 11 12 19 31 37 36 35 31 29 29 29 30 27 23 18 17 11
22 24 24 24 24 24 25 25 24 28 33 35 33 32 29 26 30 30 35 38 38 35 31 30 30 28 25 22 20 18 19 17 18 14 16 19 32 33 31 34 29 28 32 31 28 21 18 20 15
24 22 20 21 21 22 21 26 22 16 34 33 41 37 35 30 28 27 29 32 33 33 36 32 31 35 33 29 24 21 20 22 19 17 16 14 24 28 28 34 34 26 25 27 27 24 24 23 19
26 24 20 21 21 22 20 23 26 33 35 36 39 43 42 38 34 33 29 27 27 30 34 38 36 31 36 31 28 23 22 22 18 13 14 16 18 28 30 30 30 30 29 29 28 30 30 29 23
28 27 25 24 24 25 24 23 26 30 33 35 36 41 44 40 36 37 34 33 32 28 27 29 30 34 33 30 25 24 24 26 22 20 15 16 19 18 20 24 29 31 31 27 25 26 28 31 28
Wind_Direction
197 192 197 206 214 219 223 228 242 264 280 301 313 308 325 323 325 334 335 333 336 341 322 188 171 175 156 155 203 202 211 207 200 211 228 246 269 296 317 326 323 319 324 322 321 341 355 0 0
200 196 194 200 207 206 221 239 255 270 276 302 309 307 328 326 334 337 334 336 338 351 339 163 144 157 161 207 208 209 205 214 221 212 211 223 265 296 313 321 319 316 321 349 332 344 354 359 4
196 197 198 206 202 204 235 252 266 272 273 293 310 324 329 330 345 343 338 339 335 352 3 165 155 167 178 172 184 193 210 210 215 199 203 221 265 311 327 326 315 319 359 345 342 347 356 0 0
199 204 208 209 210 231 241 251 266 272 284 296 317 315 330 337 345 345 342 343 344 310 2 167 164 163 177 168 177 192 196 202 201 199 207 232 265 316 330 6 34 18 359 339 355 5 354 359 358
211 215 222 222 232 245 254 259 265 278 289 298 306 314 328 340 342 347 346 346 358 338 239 174 161 191 178 174 160 189 182 209 189 192 204 233 281 329 347 354 5 0 348 356 360 2 356 360 359
225 227 238 242 246 259 262 269 268 273 286 297 317 313 326 331 339 344 346 351 12 351 214 186 181 198 195 172 181 184 183 208 186 193 202 236 325 48 8 346 12 3 355 348 358 354 360 2 359
234 241 245 245 252 257 259 265 272 274 285 301 312 317 325 335 343 345 346 350 353 13 312 190 200 215 202 206 198 193 190 197 181 190 194 277 299 1 1 11 357 359 359 345 354 7 5 359 359
238 253 253 255 259 267 267 274 261 267 278 287 311 317 323 335 345 346 346 349 338 347 337 192 190 180 186 180 182 193 197 184 170 108 219 220 219 29 355 26 22 11 345 354 358 5 5 356 358
247 254 259 261 259 259 265 268 270 274 268 272 299 310 316 329 339 347 349 349 346 354 6 181 171 185 180 181 179 186 197 180 178 168 201 226 167 60 32 18 357 353 350 358 360 359 352 358 359
249 252 255 258 258 261 262 262 262 271 267 275 293 296 307 322 335 341 352 351 341 0 22 177 170 186 172 172 167 190 184 183 192 196 201 166 130 83 40 346 354 357 3 359 350 348 351 2 21
252 255 255 258 261 261 262 261 262 260 265 272 277 290 300 315 327 343 355 351 345 357 19 173 181 175 171 169 161 173 179 191 192 174 167 159 135 85 21 20 1 17 21 22 10 355 357 7 15
253 256 258 259 260 261 264 262 257 257 267 264 270 282 297 305 325 340 358 355 349 349 6 57 192 180 178 172 156 198 175 196 187 202 186 165 143 76 58 55 40 31 14 6 3 1 9 3 6
254 256 258 258 259 260 261 259 255 253 254 258 265 275 287 298 310 324 349 354 347 40 49 63 161 185 183 174 169 183 194 178 204 204 187 182 176 110 75 56 42 29 22 16 14 15 18 12 11
256 257 257 257 258 257 257 258 257 254 254 258 260 267 276 286 286 289 322 329 357 291 96 132 155 175 177 186 178 184 192 190 177 181 203 181 148 126 85 56 34 18 14 15 22 24 25 17 17
256 258 259 260 260 259 260 261 258 255 254 254 256 261 269 271 272 274 288 305 343 300 240 160 176 175 189 190 179 193 194 193 183 176 157 135 153 141 92 48 27 21 20 19 21 22 34 14 15
259 257 258 258 258 259 258 257 260 257 252 254 255 256 262 267 270 265 262 273 313 272 215 186 172 185 192 190 191 197 198 203 209 204 234 265 252 167 133 38 10 27 30 24 20 23 36 18 11
260 259 258 256 256 256 257 251 254 253 252 251 252 255 259 263 260 253 237 256 282 249 214 196 183 187 196 197 197 201 199 202 200 215 232 251 242 184 194 294 354 20 15 19 19 24 26 29 23
260 259 256 254 254 255 254 253 252 251 253 254 252 250 250 250 247 235 233 242 250 226 202 203 200 197 205 203 209 212 210 210 214 224 233 234 217 262 244 241 293 335 352 358 15 20 29 20 30
258 256 255 254 252 251 253 251 252 251 250 249 250 249 245 243 226 225 220 226 233 217 212 217 217 214 217 221 208 215 219 222 218 224 224 227 234 259 273 263 270 287 322 346 11 14 13 18 358
257 258 256 253 253 252 254 257 257 255 252 249 243 237 238 236 225 218 216 211 232 224 210 217 218 226 221 225 229 224 224 227 230 232 227 229 233 257 269 265 265 281 301 337 358 14 358 5 10
257 256 254 253 255 254 253 252 260 257 255 247 241 231 219 217 223 215 214 216 219 217 209 211 233 221 223 228 229 229 228 232 226 230 230 244 242 245 239 263 286 258 311 318 341 357 2 349 11
249 250 251 250 248 242 246 241 333 255 251 249 237 227 212 214 220 224 219 223 213 212 215 217 225 234 229 227 230 234 233 232 237 235 241 242 248 251 254 248 257 276 288 292 308 328 348 338 358
242 246 246 246 244 238 241 239 235 251 248 245 232 216 220 211 225 228 223 229 225 214 216 226 228 234 231 229 236 236 233 239 236 237 241 242 247 252 260 255 246 260 281 282 294 314 318 321 304
248 249 250 250 244 245 231 238 234 214 233 240 236 222 214 207 216 219 229 236 233 232 235 229 234 229 225 234 234 242 266 252 246 243 240 243 238 232 240 242 246 259 259 275 282 302 301 301 280
252 253 253 258 256 237 245 252 244 238 232 230 232 226 217 220 217 223 220 221 227 239 240 238 248 249 237 232 234 246 244 268 257 259 251 229 238 230 233 246 244 255 263 265 277 292 280 290 260
248 252 257 261 261 252 246 249 247 237 233 226 225 225 221 227 230 216 220 232 226 230 244 249 247 244 235 240 237 242 246 260 279 289 275 243 232 231 232 237 244 255 262 260 268 280 269 273 247
255 263 265 267 265 261 252 246 245 238 231 226 219 226 225 230 223 228 225 235 240 241 240 243 242 238 233 231 235 241 241 251 267 295 279 247 220 225 231 236 244 256 255 256 261 267 257 261 250
264 264 261 257 259 260 255 248 235 251 242 233 223 220 225 227 241 231 232 234 234 238 227 223 232 237 238 235 232 252 244 245 263 287 271 255 220 223 230 236 235 243 253 257 260 252 252 252 243
265 266 255 252 257 260 261 255 241 238 234 234 229 227 229 226 222 226 232 232 226 232 234 232 232 237 239 239 240 248 253 246 256 266 258 250 239 233 236 238 240 247 252 257 256 255 252 256 241
263 259 255 255 260 262 259 259 255 247 241 237 232 232 222 227 222 222 226 229 227 231 237 234 238 241 243 225 242 246 246 239 249 247 247 245 236 234 238 239 245 249 250 249 251 257 259 248 246
Height
10997 10998 10999 11001 11004 11006 11007 11008 11008 11007 11007 11004 11002 10999 10995 10990 10985 10978 10970 10960 10953 10948 10942 10941 10946 10950 10957 10962 10967 10971 10975 10979 10983 10985 10985 10985 10986 10985 10985 10983 10981 10979 10976 10973 10970 10967 10962 10956 10949
10997 10998 10999 11001 11003 11005 11006 11007 11007 11006 11005 11003 11001 10998 10994 10988 10981 10975 10969 10958 10953 10949 10945 10943 10947 10952 10958 10962 10967 10970 10975 10979 10984 10985 10985 10985 10986 10985 10984 10983 10980 10978 10975 10973 10969 10966 10962 10956 10949
10996 10997 10999 11000 11002 11004 11004 11006 11005 11004 11003 11002 10999 10996 10992 10986 10980 10974 10966 10957 10952 10951 10947 10948 10950 10953 10958 10959 10965 10970 10975 10980 10984 10986 10985 10985 10985 10984 10983 10981 10978 10977 10975 10972 10969 10966 10960 10954 10949
10994 10997 10998 10999 11001 11003 11003 11004 11003 11002 11001 11000 10997 10994 10991 10984 10979 10973 10965 10957 10952 10952 10951 10951 10952 10955 10957 10960 10964 10968 10974 10979 10983 10985 10985 10985 10986 10985 10984 10980 10978 10978 10975 10973 10969 10965 10960 10955 10949
10995 10996 10997 10999 11001 11002 11002 11002 11001 11000 10999 10998 10995 10992 10989 10984 10979 10972 10965 10957 10953 10951 10951 10953 10954 10954 10954 10959 10964 10969 10974 10979 10982 10985 10985 10986 10986 10985 10984 10981 10980 10978 10976 10973 10969 10965 10961 10956 10950
10992 10995 10996 10997 10998 10998 10999 10999 10998 10998 10997 10996 10993 10991 10987 10983 10978 10972 10965 10958 10955 10951 10950 10952 10952 10955 10959 10961 10965 10969 10974 10978 10982 10985 10986 10986 10986 10985 10983 10982 10980 10978 10976 10972 10969 10966 10962 10957 10952
10990 10992 10992 10994 10995 10996 10997 10997 10996 10995 10995 10993 10992 10989 10985 10982 10977 10973 10965 10958 10955 10953 10950 10951 10952 10955 10958 10962 10967 10971 10974 10978 10982 10985 10986 10986 10987 10986 10984 10982 10981 10979 10976 10972 10970 10966 10963 10958 10953
10987 10988 10990 10991 10993 10993 10993 10993 10992 10992 10992 10991 10990 10987 10985 10981 10977 10973 10966 10958 10956 10953 10950 10950 10951 10954 10958 10961 10967 10971 10975 10978 10983 10987 10986 10986 10987 10986 10985 10983 10982 10979 10977 10974 10971 10967 10964 10960 10956
10983 10984 10986 10987 10988 10989 10989 10990 10990 10990 10989 10989 10988 10987 10984 10981 10977 10973 10967 10959 10956 10954 10950 10951 10952 10954 10958 10962 10967 10972 10976 10979 10982 10983 10986 10988 10987 10986 10985 10984 10982 10980 10978 10976 10972 10967 10965 10962 10957
10977 10980 10980 10982 10984 10985 10986 10987 10988 10987 10987 10987 10986 10985 10983 10980 10977 10973 10967 10961 10957 10955 10953 10953 10954 10956 10960 10965 10970 10974 10978 10980 10983 10985 10986 10987 10987 10986 10985 10984 10982 10981 10978 10976 10974 10970 10968 10964 10958
10971 10973 10975 10976 10979 10980 10982 10983 10984 10984 10984 10984 10984 10982 10981 10979 10977 10973 10968 10964 10958 10956 10954 10955 10956 10958 10962 10966 10971 10976 10980 10981 10983 10986 10986 10988 10987 10986 10986 10985 10983 10982 10979 10977 10974 10972 10969 10967 10965
10964 10966 10968 10970 10973 10974 10977 10979 10981 10980 10981 10981 10980 10979 10978 10977 10975 10974 10970 10965 10961 10958 10957 10956 10958 10961 10964 10968 10973 10976 10981 10982 10984 10986 10987 10988 10988 10987 10987 10986 10985 10983 10980 10978 10976 10973 10969 10967 10964
10956 10958 10960 10963 10966 10968 10970 10972 10975 10976 10977 10977 10976 10976 10976 10975 10975 10973 10971 10968 10963 10961 10959 10959 10960 10963 10965 10969 10973 10977 10979 10983 10984 10985 10987 10988 10988 10988 10988 10987 10985 10984 10982 10979 10976 10973 10970 10968 10963
10947 10949 10952 10955 10958 10960 10963 10967 10968 10970 10970 10971 10972 10972 10973 10973 10973 10972 10972 10970 10966 10964 10963 10962 10964 10964 10966 10970 10975 10977 10980 10983 10984 10986 10987 10988 10988 10988 10988 10989 10987 10986 10984 10980 10976 10973 10970 10967 10963
10937 10941 10943 10948 10949 10951 10955 10960 10960 10962 10964 10965 10967 10968 10969 10970 10970 10970 10971 10970 10968 10965 10964 10964 10965 10967 10968 10970 10974 10977 10981 10983 10984 10986 10987 10988 10989 10989 10989 10990 10989 10987 10985 10981 10977 10973 10971 10968 10964
10928 10931 10935 10938 10938 10941 10946 10951 10951 10954 10958 10958 10960 10963 10964 10965 10966 10967 10968 10968 10967 10964 10965 10965 10966 10968 10969 10971 10974 10977 10980 10983 10985 10986 10987 10988 10989 10990 10991 10992 10991 10988 10986 10983 10978 10976 10972 10971 10966
10917 10921 10924 10926 10928 10932 10935 10941 10942 10943 10948 10951 10953 10956 10958 10960 10961 10962 10964 10965 10965 10964 10964 10966 10967 10968 10970 10972 10974 10977 10980 10982 10984 10985 10986 10988 10989 10990 10992 10994 10995 10991 10988 10985 10980 10977 10975 10971 10968
10908 10911 10913 10916 10919 10922 10925 10932 10933 10935 10939 10942 10945 10948 10952 10954 10956 10957 10960 10961 10962 10962 10962 10964 10966 10968 10968 10971 10974 10976 10979 10981 10982 10984 10985 10987 10988 10989 10991 10993 10994 10991 10989 10985 10982 10978 10976 10974 10971
10901 10902 10906 10909 10911 10914 10916 10920 10923 10926 10930 10934 10937 10940 10943 10946 10949 10953 10956 10958 10959 10960 10961 10962 10964 10965 10968 10969 10971 10973 10976 10979 10980 10982 10983 10985 10986 10988 10989 10989 10989 10988 10987 10985 10982 10979 10976 10974 10972
10894 10897 10901 10903 10905 10909 10911 10913 10916 10919 10922 10926 10929 10932 10937 10940 10943 10948 10951 10953 10955 10957 10959 10961 10961 10962 10965 10967 10968 10971 10973 10976 10978 10979 10981 10982 10983 10985 10986 10987 10986 10985 10984 10983 10981 10979 10977 10975 10973
10889 10892 10895 10898 10902 10902 10903 10907 10912 10912 10915 10919 10922 10925 10931 10935 10940 10943 10947 10949 10951 10954 10956 10959 10960 10961 10962 10963 10965 10966 10969 10971 10973 10974 10976 10977 10979 10981 10982 10984 10984 10982 10983 10982 10981 10979 10977 10975 10975
10885 10887 10890 10894 10897 10898 10899 10905 10914 10906 10910 10913 10916 10919 10923 10930 10934 10938 10942 10945 10948 10950 10952 10955 10958 10959 10960 10961 10961 10962 10964 10966 10968 10971 10972 10974 10974 10976 10979 10980 10981 10981 10981 10981 10980 10979 10977 10976 10976
10881 10884 10886 10889 10892 10893 10895 10897 10899 10901 10905 10907 10911 10915 10919 10924 10930 10933 10937 10940 10944 10946 10948 10951 10954 10957 10957 10958 10959 10959 10960 10961 10963 10964 10967 10969 10971 10972 10975 10975 10977 10977 10978 10979 10978 10978 10976 10975 10976
10878 10880 10883 10884 10888 10889 10890 10889 10894 10899 10898 10901 10905 10910 10915 10920 10924 10928 10932 10936 10940 10943 10945 10947 10950 10953 10954 10956 10956 10957 10956 10956 10958 10959 10961 10963 10964 10969 10969 10969 10973 10974 10975 10976 10976 10976 10975 10975 10974
10875 10876 10878 10880 10882 10888 10886 10884 10887 10890 10893 10896 10901 10906 10910 10914 10919 10923 10926 10930 10935 10939 10941 10943 10946 10949 10951 10951 10952 10953 10953 10953 10954 10954 10953 10955 10956 10961 10963 10965 10968 10969 10970 10972 10973 10973 10973 10972 10972
10870 10872 10873 10875 10875 10878 10878 10879 10881 10884 10888 10892 10896 10902 10905 10909 10912 10917 10920 10923 10929 10932 10935 10938 10941 10944 10946 10947 10948 10949 10950 10950 10950 10949 10948 10946 10948 10953 10958 10962 10963 10964 10966 10968 10969 10970 10970 10969 10969
10865 10866 10867 10868 10869 10870 10872 10873 10875 10877 10882 10886 10890 10896 10900 10904 10907 10910 10914 10917 10919 10924 10929 10933 10935 10939 10941 10943 10944 10944 10945 10946 10945 10943 10941 10939 10941 10947 10953 10956 10959 10960 10960 10962 10964 10966 10967 10966 10966
10858 10860 10861 10861 10862 10863 10866 10866 10872 10878 10873 10880 10884 10888 10894 10897 10901 10904 10907 10910 10914 10918 10922 10925 10929 10932 10935 10937 10939 10940 10940 10941 10940 10939 10937 10937 10938 10941 10946 10949 10953 10955 10955 10957 10958 10959 10962 10962 10963
10851 10853 10855 10857 10857 10858 10860 10860 10864 10865 10868 10870 10876 10881 10886 10891 10894 10897 10901 10905 10908 10911 10915 10918 10922 10924 10928 10931 10933 10935 10936 10936 10936 10936 10934 10934 10935 10937 10940 10943 10945 10948 10949 10951 10952 10954 10956 10958 10960
10845 10847 10849 10851 10852 10853 10854 10856 10856 10859 10860 10863 10867 10873 10879 10883 10887 10891 10894 10898 10902 10905 10908 10911 10914 10917 10920 10924 10926 10928 10930 10931 10931 10931 10931 10931 10932 10933 10934 10937 10940 10942 10944 10946 10947 10949 10951 10952 10955